[[{"header":{"parameterUnit":"m.s-1","parameterCategory":1,"la1":30.2991,"la2":30.254,"lo1":-89.0895,"lo2":-89.0444,"dy":0.0017,"dx":0.0017,"nx":28,"ny":28,"refTime":"2025-04-17T21:00:00:Z","depth":0,"parameterNumber":2,"parameterNumberName":"U-component_of_WINDS"},"data":[0,0,0,0,0,0,0,0,0,0,0,0,0,0,0,0,0,0,0,0,0,0,0,0,0,0,0,0,0,0,0,0,0,0,0,0,0,0,0,0,0,0,0,0,0,0,0,0,0,0,0,0,0,0,0,0,0,0,-4.5749,-4.575,0,-4.5848,-4.5849,-4.585,-4.5829,-4.5827,-4.5825,-4.5824,-4.5925,-4.5929,-4.5933,0,0,0,0,0,0,0,0,0,0,0,0,0,-4.5543,-4.5547,-4.5749,-4.575,-4.5751,-4.5847,-4.5849,-4.585,-4.5829,-4.5827,-4.5825,-4.5823,-4.5923,-4.5928,-4.5934,0,0,0,0,0,0,0,0,0,0,0,0,0,-4.5636,-4.5548,-4.5748,-4.5752,-4.5754,-4.5847,-4.5849,-4.585,-4.583,-4.5827,-4.5824,-4.5822,-4.5921,-4.5928,-4.5934,-4.603,0,0,-4.5954,-4.5957,0,0,0,0,0,0,0,0,-4.5631,-4.5644,-4.5751,-4.5752,-4.5754,-4.5823,-4.5813,-4.5911,-4.583,-4.5801,-4.5824,-4.582,-4.5893,-4.5902,-4.5926,-4.6035,-4.6039,-4.5955,-4.5959,-4.5962,-4.5964,0,0,0,0,0,0,0,-4.5624,-4.5639,-4.5788,-4.5752,-4.5754,-4.575,-4.576,-4.5832,-4.5861,-4.5803,-4.5802,-4.5814,-4.5893,-4.592,-4.5929,-4.604,-4.5955,-4.5961,-4.5965,-4.5967,-4.6232,-4.6235,0,0,0,0,0,0,-4.5616,-4.5634,-4.5785,-4.5791,-4.5684,-4.5755,-4.5767,-4.5804,-4.586,-4.5866,-4.5816,-4.5813,-4.591,-4.5921,-4.5932,-4.6047,-4.5962,-4.5968,-4.5972,-4.6229,-4.6233,-4.6236,0,0,0,0,0,0,-4.5612,-4.563,-4.5781,-4.5712,-4.5731,-4.5762,-4.5803,-4.5807,-4.5833,-4.587,-4.5875,-4.5838,-4.5908,-4.5923,-4.6006,-4.605,-4.5971,-4.5977,-4.6225,-4.623,-4.6234,-4.6277,0,0,0,0,0,0,-4.5606,-4.5629,-4.5665,-4.5713,-4.5735,-4.5852,-4.5806,-4.5811,-4.5845,-4.5841,-4.5892,-4.5897,-4.5907,-4.5996,-4.6012,-4.6057,-4.5982,-4.6221,-4.6228,-4.6233,-4.6272,-4.6282,-4.6292,0,0,0,0,0,-4.5599,-4.5673,-4.5667,-4.5685,-4.5781,-4.5855,-4.5867,-4.5877,-4.5849,-4.5885,-4.5909,-4.5896,-4.6043,-4.6005,-4.6023,-4.6071,-4.6219,-4.6226,-4.6233,-4.6267,-4.628,-4.6291,0,0,0,0,0,0,-4.5628,-4.5679,-4.5673,-4.5765,-4.5806,-4.5851,-4.5897,-4.5891,-4.5941,-4.5935,-4.5945,-4.5957,-4.6041,-4.6065,-4.6021,-4.6166,-4.6127,-4.6138,-4.6147,-4.616,-4.617,-4.6161,-4.5988,0,0,0,0,0,-4.5646,-4.5702,-4.5743,-4.582,-4.5841,-4.5866,-4.5899,-4.5903,-4.5946,-4.5963,-4.5993,-4.6035,-4.6091,-4.6127,-4.6181,-4.6276,-4.6286,-4.6318,-4.6328,-4.6336,-4.6345,-4.6397,-4.6411,-4.6259,-4.6259,-4.6259,0,0,-4.5682,-4.5717,-4.5751,-4.5827,-4.5859,-4.5917,-4.5881,-4.5943,-4.5986,-4.5973,-4.6052,-4.6076,-4.6124,-4.6213,-4.6254,-4.6236,-4.639,-4.6345,-4.6351,-4.6355,-4.6405,-4.642,-4.6432,-4.6264,-4.6263,-4.6262,0,0,-4.5776,-4.5809,-4.5876,-4.5909,-4.5959,-4.5975,-4.5992,-4.6039,-4.6054,-4.6134,-4.6125,-4.6177,-4.6273,-4.6308,-4.6338,-4.6448,-4.6437,-4.6465,-4.6516,-4.6566,-4.6578,-4.6589,-4.6626,-4.664,-4.6474,-4.6474,-4.6474,0,-4.5814,-4.59,-4.5911,-4.5975,-4.6008,-4.6,-4.6068,-4.61,-4.6165,-4.6188,-4.6167,-4.6287,-4.6319,-4.6416,-4.6443,-4.6469,-4.6487,-4.6457,-4.6576,-4.6586,-4.6597,-4.6632,-4.6647,-4.6477,-4.6477,-4.6476,-4.6476,0,-4.5944,-4.6005,-4.6053,-4.6115,-4.6155,-4.6221,-4.6242,-4.6281,-4.6282,-4.6301,-4.6383,-4.6422,-4.6482,-4.6507,-4.6509,-4.6605,-4.6591,-4.6573,-4.6533,-4.6614,-4.6647,-4.6662,-4.6481,-4.648,-4.6479,-4.6478,0,0,-4.6057,-4.6126,-4.6143,-4.6171,-4.6227,-4.6273,-4.6339,-4.6399,-4.6431,-4.6478,-4.6532,-4.6615,-4.6598,-4.6633,-4.6639,-4.6684,-4.6767,-4.666,-4.6661,-4.6677,-4.6873,-4.6884,-4.69,-4.6762,-4.6764,-4.6767,-4.6868,0,-4.6155,-4.627,-4.6282,-4.6385,-4.644,-4.6435,-4.6492,-4.6532,-4.6552,-4.6603,-4.6625,-4.6683,-4.6658,-4.6678,-4.6723,-4.6747,-4.6806,-4.6741,-4.6812,-4.6814,-4.6797,-4.6918,-4.693,-4.7024,-4.6882,-4.6884,-4.6886,0,-4.6283,-4.6332,-4.644,-4.6488,-4.6512,-4.6563,-4.6619,-4.6667,-4.6713,-4.6725,-4.6764,-4.6765,-4.6834,-4.6794,-4.6888,-4.6843,-4.6873,-4.689,-4.6894,-4.6899,-4.6853,-4.6924,-4.7055,-4.7068,-4.6907,-4.6906,-4.6904,0,-4.6352,-4.6446,-4.6522,-4.6547,-4.6605,-4.6641,-4.6667,-4.671,-4.6746,-4.6795,-4.6818,-4.6875,-4.6906,-4.695,-4.6967,-4.6937,-4.706,-4.7021,-4.707,-4.707,-4.7094,-4.7092,-4.7229,-4.7118,-4.7118,-4.7118,-4.7118,0,-4.6458,-4.6524,-4.6554,-4.66,-4.6674,-4.6689,-4.6762,-4.6787,-4.6826,-4.6877,-4.6877,-4.6926,-4.6946,-4.6998,-4.7013,-4.7087,-4.7102,-4.7113,-4.7115,-4.7111,-4.711,-4.7129,-4.7122,-4.7122,-4.7121,-4.712,-4.7119,0,-4.6546,-4.6569,-4.6651,-4.67,-4.6714,-4.6766,-4.6808,-4.6854,-4.6874,-4.694,-4.6956,-4.6988,-4.705,-4.7072,-4.7147,-4.7156,-4.7242,-4.7241,-4.7226,-4.7226,-4.7273,-4.7268,-4.7426,-4.7447,-4.7324,-4.7326,-4.7327,0,-4.661,-4.6661,-4.6715,-4.675,-4.6777,-4.6833,-4.6869,-4.6886,-4.6924,-4.6981,-4.702,-4.7081,-4.713,-4.7229,-4.7259,-4.7317,-4.7315,-4.7367,-4.7323,-4.7318,-4.7313,-4.7309,-4.7313,-4.7373,-4.7375,-4.7376,-4.7377,0,-4.6722,-4.6731,-4.6783,-4.6839,-4.6882,-4.6928,-4.6972,-4.7,-4.7024,-4.7067,-4.713,-4.7168,-4.7245,-4.7305,-4.7365,-4.7392,-4.7388,-4.7391,-4.7404,-4.7399,-4.7388,-4.7393,-4.7246,-4.7386,-4.7385,-4.7384,-4.7384,-4.7383,-4.6799,-4.6843,-4.6888,-4.6946,-4.6981,-4.7023,-4.7068,-4.7094,-4.7147,-4.721,-4.7218,-4.7285,-4.7331,-4.741,-4.744,-4.7494,-4.7479,-4.75,-4.7505,-4.7509,-4.7511,-4.7382,-4.7505,-4.7505,-4.7504,-4.7504,-4.7504,0,-4.6909,-4.6938,-4.6991,-4.7053,-4.7098,-4.7092,-4.7141,-4.7179,-4.7238,-4.7282,-4.7331,-4.7403,-4.7462,-4.7498,-4.7557,-4.7593,-4.7593,-4.7608,-4.7604,-4.761,-4.7522,-4.7502,-4.7607,-4.7607,-4.7607,-4.7607,-4.7607,-4.7607,-4.6971,-4.7045,-4.706,-4.7152,-4.7182,-4.7247,-4.7275,-4.7313,-4.7348,-4.7428,-4.7477,-4.75,-4.7541,-4.7604,-4.7658,-4.7667,-4.7688,-4.7704,-4.7711,-4.7627,-4.7616,-4.7606,-4.7588,-4.7709,-4.7709,-4.7795,-4.7796,-4.7797]},{"header":{"parameterUnit":"m.s-1","parameterCategory":1,"la1":30.2991,"la2":30.254,"lo1":-89.0895,"lo2":-89.0444,"dy":0.0017,"dx":0.0017,"nx":28,"ny":28,"refTime":"2025-04-17T21:00:00:Z","depth":0,"parameterNumber":3,"parameterNumberName":"V-component_of_WINDS"},"data":[0,0,0,0,0,0,0,0,0,0,0,0,0,0,0,0,0,0,0,0,0,0,0,0,0,0,0,0,0,0,0,0,0,0,0,0,0,0,0,0,0,0,0,0,0,0,0,0,0,0,0,0,0,0,0,0,0,0,3.7101,3.7102,0,3.7181,3.7182,3.7183,3.7171,3.7169,3.7168,3.7167,3.7243,3.7246,3.7249,0,0,0,0,0,0,0,0,0,0,0,0,0,3.6935,3.6939,3.7101,3.7102,3.7103,3.7181,3.7182,3.7183,3.7171,3.7169,3.7168,3.7166,3.7242,3.7246,3.725,0,0,0,0,0,0,0,0,0,0,0,0,0,3.701,3.694,3.7101,3.7107,3.7108,3.7181,3.7182,3.7183,3.7171,3.7169,3.7167,3.7166,3.7241,3.7245,3.725,3.732,0,0,3.7265,3.7267,0,0,0,0,0,0,0,0,3.7006,3.7016,3.7105,3.7107,3.7108,3.7164,3.7151,3.7229,3.7172,3.7147,3.7167,3.7165,3.7218,3.7225,3.7244,3.7324,3.7327,3.7266,3.7269,3.7271,3.7272,0,0,0,0,0,0,0,3.7001,3.7013,3.7133,3.7106,3.7108,3.7104,3.7113,3.7166,3.7193,3.7149,3.7149,3.7158,3.7218,3.7239,3.7245,3.7328,3.7266,3.727,3.7273,3.7275,3.7472,3.7474,0,0,0,0,0,0,3.6995,3.7009,3.713,3.7135,3.7051,3.7109,3.7118,3.7148,3.7192,3.7197,3.716,3.7158,3.7232,3.724,3.7248,3.7335,3.7271,3.7275,3.7278,3.747,3.7473,3.7475,0,0,0,0,0,0,3.6991,3.7006,3.7127,3.7072,3.7087,3.7114,3.7147,3.7151,3.7171,3.72,3.7205,3.7177,3.723,3.7241,3.7303,3.7337,3.7278,3.7282,3.7467,3.7471,3.7474,3.7507,0,0,0,0,0,0,3.6987,3.7005,3.7032,3.7073,3.709,3.7182,3.7149,3.7154,3.718,3.7178,3.7217,3.7221,3.723,3.7296,3.7308,3.7343,3.7286,3.7464,3.7469,3.7473,3.7503,3.7511,3.7518,0,0,0,0,0,3.6981,3.7037,3.7034,3.7048,3.7125,3.7184,3.7194,3.7204,3.7183,3.7211,3.723,3.722,3.7332,3.7303,3.7316,3.7353,3.7462,3.7468,3.7473,3.75,3.751,3.7518,0,0,0,0,0,0,3.6997,3.7042,3.7039,3.711,3.7144,3.7182,3.7217,3.7214,3.7252,3.7248,3.7257,3.7266,3.7329,3.7347,3.7314,3.7424,3.7394,3.7402,3.741,3.742,3.7427,3.7421,3.729,0,0,0,0,0,3.7009,3.7055,3.7091,3.715,3.7167,3.719,3.7215,3.7221,3.7255,3.7268,3.7292,3.7324,3.7366,3.7394,3.7434,3.7506,3.7515,3.7538,3.7545,3.7551,3.7558,3.7599,3.761,3.7492,3.7492,3.7492,0,0,3.7034,3.7064,3.7092,3.7154,3.7181,3.7227,3.7201,3.725,3.7284,3.7275,3.7336,3.7355,3.7391,3.7459,3.749,3.7476,3.7593,3.7558,3.7563,3.7566,3.7605,3.7616,3.7626,3.7496,3.7495,3.7495,0,0,3.7103,3.7131,3.7184,3.7212,3.7254,3.7269,3.7281,3.7321,3.7334,3.7396,3.739,3.743,3.7503,3.753,3.7553,3.7636,3.7628,3.7648,3.7688,3.7727,3.7737,3.7745,3.7775,3.7786,3.7655,3.7655,3.7655,0,3.7128,3.7199,3.7211,3.7262,3.729,3.7286,3.734,3.7366,3.7418,3.7437,3.7421,3.7514,3.7538,3.7613,3.7633,3.7652,3.7667,3.7644,3.7735,3.7743,3.7751,3.778,3.7791,3.7657,3.7657,3.7657,3.7657,0,3.7228,3.7278,3.7315,3.7369,3.7401,3.7453,3.7472,3.7503,3.7506,3.7522,3.7586,3.7615,3.7663,3.7681,3.7683,3.7757,3.7747,3.7733,3.7703,3.7764,3.7792,3.7803,3.7661,3.766,3.7659,3.7659,0,0,3.7308,3.737,3.7384,3.7409,3.7456,3.7494,3.7546,3.7594,3.7621,3.7657,3.7701,3.7764,3.7752,3.7779,3.7784,3.7819,3.7884,3.78,3.7801,3.7815,3.7968,3.7979,3.7991,3.7879,3.7882,3.7883,3.7965,0,3.7383,3.7477,3.7491,3.7574,3.762,3.7618,3.7664,3.7697,3.7714,3.7755,3.7773,3.7818,3.7798,3.7814,3.7849,3.7868,3.7914,3.7863,3.792,3.7922,3.7911,3.8006,3.8017,3.8092,3.7976,3.7978,3.7979,0,3.7482,3.7524,3.7612,3.7656,3.7675,3.7716,3.7763,3.7802,3.784,3.785,3.7881,3.7883,3.7936,3.7905,3.7979,3.7943,3.7968,3.7981,3.7984,3.799,3.7954,3.8014,3.8117,3.8128,3.7996,3.7994,3.7993,0,3.7533,3.7611,3.7675,3.7696,3.7748,3.7777,3.7799,3.7835,3.7865,3.7905,3.7924,3.7969,3.7994,3.8028,3.8042,3.8018,3.8116,3.8085,3.8125,3.8125,3.8146,3.8144,3.8254,3.8161,3.8161,3.816,3.816,0,3.7615,3.7669,3.7699,3.7738,3.7799,3.7814,3.7873,3.7894,3.7927,3.797,3.797,3.801,3.8026,3.8068,3.8079,3.8139,3.8149,3.8159,3.8161,3.8159,3.8158,3.8175,3.817,3.8163,3.8163,3.8162,3.8162,0,3.7681,3.7704,3.7773,3.7818,3.783,3.7873,3.791,3.7948,3.7965,3.802,3.8033,3.806,3.811,3.8128,3.8187,3.8194,3.8265,3.8262,3.8253,3.8253,3.8293,3.8289,3.8417,3.8435,3.833,3.8331,3.8332,0,3.7732,3.7775,3.7825,3.7854,3.7879,3.7926,3.7957,3.7973,3.8005,3.8053,3.8085,3.8135,3.8176,3.8256,3.828,3.8326,3.8325,3.8366,3.8331,3.8329,3.8326,3.8324,3.8328,3.8373,3.8374,3.8375,3.8375,0,3.7821,3.7831,3.7876,3.7926,3.7964,3.8003,3.8041,3.8065,3.8087,3.8123,3.8175,3.8207,3.827,3.832,3.8367,3.8389,3.8386,3.8387,3.8399,3.8397,3.839,3.8396,3.8271,3.8383,3.8383,3.8382,3.8382,3.8381,3.7882,3.792,3.7962,3.8013,3.8045,3.8081,3.8119,3.8143,3.8188,3.8242,3.8248,3.8305,3.8343,3.8407,3.8431,3.8475,3.8463,3.848,3.8484,3.8488,3.8492,3.8384,3.8483,3.8483,3.8483,3.8483,3.8482,0,3.7972,3.7999,3.8046,3.8101,3.8142,3.8138,3.8181,3.8214,3.8265,3.8301,3.8343,3.8403,3.8452,3.8482,3.853,3.856,3.856,3.8572,3.857,3.8576,3.8499,3.8484,3.8572,3.8572,3.8572,3.8571,3.8571,3.8571,3.8023,3.8088,3.8103,3.8184,3.8211,3.8268,3.8293,3.8327,3.8357,3.8425,3.8467,3.8487,3.852,3.8572,3.8617,3.8624,3.8642,3.8656,3.8662,3.859,3.8581,3.8572,3.8558,3.8659,3.866,3.8735,3.8735,3.8736]}]]